IT9IRS-1 Weather Reports


Display with metric or nautical units.
time (UTC)temp
F
wind
direction
speed
MPH
gust
MPH
rain 1hr
in
rain 24hr
in
rain mn
in
humidity
%
barometer
mb
20260507233503 65 315 0.0 2.0 0.00 0.00 0.00 78 1006.3
20260507233003 65 315 0.0 2.0 0.00 0.00 0.00 78 1006.3
20260507232503 65 315 0.0 2.0 0.00 0.00 0.00 78 1006.3
20260507232003 65 315 0.0 2.0 0.00 0.00 0.00 78 1006.3
20260507231713 65 315 1.0 2.0 0.00 0.00 0.00 78 1006.3
20260507231005 65 322 1.0 3.0 0.00 0.00 0.00 78 1006.3
20260507230505 65 0 0.0 0.0 0.00 0.00 0.00 78 1006.3
20260507230004 65 180 0.0 2.0 0.00 0.00 0.00 78 1006.3
20260507225715 65 194 0.0 2.0 0.00 0.00 0.00 78 1006.3
20260507225003 65 284 1.0 2.0 0.00 0.00 0.00 78 1007.3
20260507224505 65 270 1.0 2.0 0.00 0.00 0.00 77 1007.3
20260507224005 65 270 0.0 1.0 0.00 0.00 0.00 77 1007.3
20260507223503 65 315 0.0 1.0 0.00 0.00 0.00 77 1007.3
20260507223003 65 301 1.0 4.0 0.00 0.00 0.00 77 1007.3
20260507222503 65 288 2.0 4.0 0.00 0.00 0.00 77 1007.3
20260507222004 65 277 2.0 4.0 0.00 0.00 0.00 77 1007.3
20260507221504 65 277 2.0 4.0 0.00 0.00 0.00 77 1007.3
20260507221004 65 277 4.0 6.0 0.00 0.00 0.00 77 1007.3
20260507220504 65 276 5.0 6.0 0.00 0.00 0.00 77 1007.3
20260507220004 65 273 4.0 6.0 0.00 0.00 0.00 76 1007.3
20260507215504 65 271 5.0 6.0 0.00 0.00 0.00 76 1007.3
20260507215004 65 273 5.0 6.0 0.00 0.00 0.00 76 1007.3
20260507214505 65 272 5.0 8.0 0.00 0.00 0.00 76 1007.3
20260507214214 65 272 5.0 8.0 0.00 0.00 0.00 76 1007.3
20260507213504 65 258 6.0 8.0 0.00 0.00 0.00 76 1007.3
20260507213215 65 249 6.0 8.0 0.00 0.00 0.00 76 1007.3
20260507212504 65 262 5.0 7.0 0.00 0.00 0.00 75 1006.3
20260507212004 65 264 4.0 7.0 0.00 0.00 0.00 75 1006.3
20260507211505 65 264 4.0 5.0 0.00 0.00 0.00 75 1006.3
20260507211004 65 271 5.0 8.0 0.00 0.00 0.00 75 1006.3
20260507210504 65 272 6.0 8.0 0.00 0.00 0.00 75 1006.3
20260507210213 65 274 6.0 8.0 0.00 0.00 0.00 75 1006.3
20260507205504 66 293 5.0 8.0 0.00 0.00 0.00 75 1005.3
20260507205004 66 302 5.0 8.0 0.00 0.00 0.00 74 1005.3
20260507204717 66 307 5.0 8.0 0.00 0.00 0.00 74 1005.3
20260507204004 66 315 3.0 5.0 0.00 0.00 0.00 74 1005.3
20260507203504 66 315 3.0 4.0 0.00 0.00 0.00 74 1005.3
20260507203004 66 315 2.0 3.0 0.00 0.00 0.00 74 1005.3
20260507202503 66 315 2.0 3.0 0.00 0.00 0.00 74 1005.3
20260507202004 66 315 2.0 3.0 0.00 0.00 0.00 73 1005.3
20260507201504 66 315 2.0 3.0 0.00 0.00 0.00 73 1005.3
20260507201004 66 315 2.0 4.0 0.00 0.00 0.00 72 1005.3
20260507200503 66 315 2.0 4.0 0.00 0.00 0.00 72 1005.3
20260507200004 66 315 2.0 4.0 0.00 0.00 0.00 72 1005.3
20260507195503 66 315 3.0 4.0 0.00 0.00 0.00 72 1005.3
20260507195003 67 315 4.0 7.0 0.00 0.00 0.00 72 1005.3
20260507194505 67 313 4.0 7.0 0.00 0.00 0.00 71 1005.3
20260507194003 67 309 4.0 5.0 0.00 0.00 0.00 72 1005.3
20260507193503 67 305 4.0 5.0 0.00 0.00 0.00 71 1005.3
20260507193217 67 306 4.0 5.0 0.00 0.00 0.00 71 1005.3
20260507192503 67 313 5.0 7.0 0.00 0.00 0.00 70 1005.3
20260507192005 67 307 6.0 7.0 0.00 0.00 0.00 70 1005.3
20260507191503 67 305 6.0 7.0 0.00 0.00 0.00 69 1005.3
20260507191003 67 306 5.0 8.0 0.00 0.00 0.00 69 1005.3
20260507190504 67 305 5.0 8.0 0.00 0.00 0.00 68 1005.3
20260507190004 67 303 5.0 6.0 0.00 0.00 0.00 68 1005.3
20260507185505 67 309 5.0 8.0 0.00 0.00 0.00 68 1004.2
20260507185003 67 306 5.0 8.0 0.00 0.00 0.00 67 1004.2
20260507184504 68 305 5.0 6.0 0.00 0.00 0.00 67 1004.2
20260507184004 68 311 5.0 6.0 0.00 0.00 0.00 66 1004.2
20260507183504 68 310 5.0 7.0 0.00 0.00 0.00 66 1004.2
20260507183004 68 311 5.0 8.0 0.00 0.00 0.00 66 1004.2
20260507182715 68 303 6.0 8.0 0.00 0.00 0.00 66 1004.2
20260507182006 68 296 6.0 8.0 0.00 0.00 0.00 66 1005.3
20260507181504 68 297 6.0 8.0 0.00 0.00 0.00 66 1005.3
20260507181005 68 292 6.0 8.0 0.00 0.00 0.00 66 1004.2
20260507180717 68 288 6.0 8.0 0.00 0.00 0.00 65 1004.2
20260507180004 69 299 5.0 7.0 0.00 0.00 0.00 62 1004.2
20260507175504 69 308 5.0 7.0 0.00 0.00 0.00 61 1004.2
20260507175005 69 307 5.0 7.0 0.00 0.00 0.00 60 1004.2
20260507174714 69 303 5.0 7.0 0.00 0.00 0.00 60 1004.2
20260507174004 70 289 5.0 7.0 0.00 0.00 0.00 61 1004.2
20260507173504 70 293 6.0 8.0 0.00 0.00 0.00 59 1004.2
20260507173004 71 288 7.0 9.0 0.00 0.00 0.00 58 1004.2
20260507172716 71 281 7.0 9.0 0.00 0.00 0.00 57 1004.2
20260507172005 71 273 6.0 9.0 0.00 0.00 0.00 53 1004.2
20260507171717 71 271 6.0 9.0 0.00 0.00 0.00 53 1004.2
20260507171004 72 281 6.0 8.0 0.00 0.00 0.00 52 1004.2
20260507170504 72 289 6.0 8.0 0.00 0.00 0.00 52 1004.2
20260507170004 72 291 7.0 8.0 0.00 0.00 0.00 52 1004.2
20260507165504 72 298 7.0 8.0 0.00 0.00 0.00 52 1004.2
20260507165003 72 302 7.0 8.0 0.00 0.00 0.00 53 1004.2
20260507164505 73 306 7.0 9.0 0.00 0.00 0.00 52 1004.2
20260507164003 73 301 6.0 9.0 0.00 0.00 0.00 52 1004.2
20260507163503 72 298 6.0 8.0 0.00 0.00 0.00 52 1004.2
20260507163004 73 296 6.0 9.0 0.00 0.00 0.00 52 1004.2
20260507162504 73 287 8.0 11.0 0.00 0.00 0.00 52 1004.2
20260507162003 73 283 10.0 13.0 0.00 0.00 0.00 52 1004.2
20260507161503 73 281 10.0 13.0 0.00 0.00 0.00 52 1004.2
20260507161215 73 276 10.0 17.0 0.00 0.00 0.00 52 1004.2
20260507160503 73 271 10.0 17.0 0.00 0.00 0.00 52 1004.2
20260507160004 73 258 9.0 13.0 0.00 0.00 0.00 52 1004.2
20260507155503 73 251 9.0 12.0 0.00 0.00 0.00 53 1004.2
20260507155003 73 249 10.0 14.0 0.00 0.00 0.00 53 1004.2
20260507154503 74 240 10.0 14.0 0.00 0.00 0.00 53 1004.2
20260507154004 74 205 10.0 13.0 0.00 0.00 0.00 53 1004.2
20260507153716 74 183 10.0 13.0 0.00 0.00 0.00 54 1004.2
20260507153003 74 217 10.0 15.0 0.00 0.00 0.00 54 1004.2
20260507152503 74 218 10.0 14.0 0.00 0.00 0.00 54 1004.2
20260507152003 74 202 10.0 14.0 0.00 0.00 0.00 55 1004.2
20260507151504 74 182 10.0 13.0 0.00 0.00 0.00 56 1004.2
20260507151003 74 180 12.0 15.0 0.00 0.00 0.00 56 1003.2
20260507150503 74 180 10.0 15.0 0.00 0.00 0.00 55 1003.2
20260507150217 74 178 8.0 15.0 0.00 0.00 0.00 55 1003.2
20260507145503 74 173 5.0 8.0 0.00 0.00 0.00 55 1004.2
20260507145004 75 179 6.0 10.0 0.00 0.00 0.00 54 1004.2
20260507144503 74 180 7.0 10.0 0.00 0.00 0.00 54 1004.2
20260507144003 74 211 8.0 15.0 0.00 0.00 0.00 54 1004.2
20260507143503 75 238 9.0 15.0 0.00 0.00 0.00 54 1004.2
20260507143004 75 198 9.0 11.0 0.00 0.00 0.00 53 1004.2
20260507142717 75 180 9.0 12.0 0.00 0.00 0.00 55 1004.2
20260507142004 75 193 10.0 16.0 0.00 0.00 0.00 54 1004.2
20260507141504 75 193 11.0 16.0 0.00 0.00 0.00 55 1004.2
20260507141004 75 207 10.0 14.0 0.00 0.00 0.00 56 1004.2
20260507140504 75 205 9.0 11.0 0.00 0.00 0.00 56 1004.2
20260507140004 75 180 9.0 11.0 0.00 0.00 0.00 56 1004.2
20260507135504 75 180 9.0 13.0 0.00 0.00 0.00 56 1004.2
20260507135004 75 213 9.0 13.0 0.00 0.00 0.00 56 1004.2
20260507134504 75 258 8.0 11.0 0.00 0.00 0.00 54 1004.2
20260507134004 75 252 10.0 12.0 0.00 0.00 0.00 55 1004.2
20260507133504 74 212 12.0 23.0 0.00 0.00 0.00 56 1004.2
20260507133004 74 220 11.0 23.0 0.00 0.00 0.00 57 1004.2
20260507132713 75 238 10.0 23.0 0.00 0.00 0.00 55 1004.2
20260507132004 75 302 9.0 14.0 0.00 0.00 0.00 56 1004.2
20260507131504 75 286 9.0 14.0 0.00 0.00 0.00 57 1004.2
20260507131004 73 247 9.0 12.0 0.00 0.00 0.00 58 1004.2
20260507130506 74 237 9.0 13.0 0.00 0.00 0.00 60 1004.2
20260507130004 73 250 9.0 14.0 0.00 0.00 0.00 62 1004.2
20260507125506 72 255 8.0 14.0 0.00 0.00 0.00 62 1004.2
20260507125004 72 199 7.0 9.0 0.00 0.00 0.00 62 1004.2
20260507124506 72 174 6.0 10.0 0.00 0.00 0.00 62 1004.2
20260507124004 72 164 6.0 10.0 0.00 0.00 0.00 61 1004.2
20260507123504 72 157 7.0 10.0 0.00 0.00 0.00 61 1004.2
20260507123217 73 163 7.0 10.0 0.00 0.00 0.00 61 1004.2
20260507122503 73 172 6.0 8.0 0.00 0.00 0.00 61 1004.2
20260507122004 73 169 6.0 10.0 0.00 0.00 0.00 61 1004.2
20260507121504 72 165 6.0 10.0 0.00 0.00 0.00 60 1004.2
20260507121004 72 165 6.0 10.0 0.00 0.00 0.00 60 1004.2
20260507120503 72 167 8.0 10.0 0.00 0.00 0.00 60 1004.2
20260507120004 73 169 8.0 9.0 0.00 0.00 0.00 60 1004.2
20260507115504 73 170 7.0 9.0 0.00 0.00 0.00 60 1004.2
20260507115004 73 174 7.0 11.0 0.00 0.00 0.00 60 1004.2
20260507114503 73 175 9.0 11.0 0.00 0.00 0.00 60 1004.2
20260507114003 72 170 9.0 13.0 0.00 0.00 0.00 60 1004.2
20260507113504 72 166 10.0 13.0 0.00 0.00 0.00 59 1004.2
20260507113004 72 171 10.0 13.0 0.00 0.00 0.00 59 1004.2
20260507112505 72 172 9.0 13.0 0.00 0.00 0.00 59 1004.2
20260507112003 73 164 9.0 11.0 0.00 0.00 0.00 59 1004.2
20260507111504 73 168 10.0 14.0 0.00 0.00 0.00 58 1004.2
20260507111003 73 170 10.0 14.0 0.00 0.00 0.00 58 1004.2
20260507110503 74 160 9.0 14.0 0.00 0.00 0.00 58 1004.2
20260507110003 74 150 7.0 10.0 0.00 0.00 0.00 57 1004.2
20260507105503 74 144 7.0 11.0 0.00 0.00 0.00 57 1004.2
20260507105215 74 140 8.0 11.0 0.00 0.00 0.00 57 1004.2
20260507104504 74 135 8.0 11.0 0.00 0.00 0.00 56 1004.2
20260507104216 74 135 7.0 9.0 0.00 0.00 0.00 56 1004.2
20260507103504 75 137 7.0 12.0 0.00 0.00 0.00 56 1004.2
20260507103004 75 140 6.0 9.0 0.00 0.00 0.00 55 1004.2
20260507102504 75 154 7.0 11.0 0.00 0.00 0.00 55 1005.3
20260507102006 75 157 6.0 11.0 0.00 0.00 0.00 54 1005.3
20260507101504 76 128 5.0 7.0 0.00 0.00 0.00 55 1005.3
20260507101214 76 130 6.0 10.0 0.00 0.00 0.00 54 1005.3
20260507100717 75 109 8.0 11.0 0.00 0.00 0.00 55 1005.3
20260507100004 74 106 9.0 11.0 0.00 0.00 0.00 55 1005.3
20260507095504 74 111 9.0 12.0 0.00 0.00 0.00 56 1004.2
20260507095004 74 109 10.0 12.0 0.00 0.00 0.00 55 1004.2
20260507094504 74 99 9.0 12.0 0.00 0.00 0.00 54 1004.2
20260507094004 74 97 9.0 17.0 0.00 0.00 0.00 54 1004.2
20260507093504 74 101 12.0 17.0 0.00 0.00 0.00 53 1004.2
20260507093218 74 99 12.0 19.0 0.00 0.00 0.00 54 1004.2
20260507092504 73 96 14.0 19.0 0.00 0.00 0.00 53 1004.2
20260507092005 73 96 13.0 17.0 0.00 0.00 0.00 53 1004.2
20260507091504 73 101 12.0 16.0 0.00 0.00 0.00 54 1004.2
20260507091004 73 99 12.0 16.0 0.00 0.00 0.00 55 1004.2
20260507090506 73 93 13.0 18.0 0.00 0.00 0.00 54 1004.2
20260507090005 73 94 14.0 18.0 0.00 0.00 0.00 55 1004.2
20260507085504 73 99 14.0 18.0 0.00 0.00 0.00 53 1004.2
20260507085004 73 103 13.0 20.0 0.00 0.00 0.00 53 1004.2
20260507084504 73 101 12.0 20.0 0.00 0.00 0.00 51 1004.2
20260507084004 73 96 12.0 20.0 0.00 0.00 0.00 52 1004.2
20260507083503 73 90 11.0 14.0 0.00 0.00 0.00 52 1004.2
20260507083004 73 102 10.0 14.0 0.00 0.00 0.00 52 1004.2
20260507082506 73 104 11.0 15.0 0.00 0.00 0.00 53 1004.2
20260507082214 73 96 10.0 15.0 0.00 0.00 0.00 53 1004.2
20260507081503 73 99 10.0 15.0 0.00 0.00 0.00 52 1004.2
20260507081004 73 101 10.0 21.0 0.00 0.00 0.00 52 1004.2
20260507080504 73 97 12.0 21.0 0.00 0.00 0.00 51 1004.2
20260507080004 72 85 13.0 18.0 0.00 0.00 0.00 51 1004.2
20260507075503 72 82 13.0 18.0 0.00 0.00 0.00 52 1004.2
20260507075003 72 82 14.0 18.0 0.00 0.00 0.00 50 1004.2
20260507074503 72 85 14.0 15.0 0.00 0.00 0.00 50 1004.2
20260507074003 73 83 14.0 18.0 0.00 0.00 0.00 48 1004.2
20260507073716 72 83 13.0 18.0 0.00 0.00 0.00 50 1004.2
20260507073003 72 88 13.0 17.0 0.00 0.00 0.00 50 1004.2
20260507072503 72 87 12.0 17.0 0.00 0.00 0.00 50 1004.2
20260507072003 72 84 11.0 14.0 0.00 0.00 0.00 49 1004.2
20260507071718 72 85 11.0 16.0 0.00 0.00 0.00 50 1004.2
20260507071003 72 90 11.0 16.0 0.00 0.00 0.00 49 1005.3
20260507070503 72 93 11.0 13.0 0.00 0.00 0.00 50 1005.3
20260507070006 72 99 11.0 15.0 0.00 0.00 0.00 50 1005.3
20260507065503 72 93 10.0 15.0 0.00 0.00 0.00 48 1004.2
20260507065003 72 79 8.0 12.0 0.00 0.00 0.00 47 1004.2
20260507064503 72 77 9.0 12.0 0.00 0.00 0.00 49 1004.2
20260507064003 72 78 9.0 12.0 0.00 0.00 0.00 48 1004.2
20260507063504 72 74 7.0 10.0 0.00 0.00 0.00 49 1004.2
20260507063004 71 72 7.0 11.0 0.00 0.00 0.00 48 1004.2
20260507062504 71 77 7.0 11.0 0.00 0.00 0.00 47 1004.2
20260507062004 71 73 5.0 7.0 0.00 0.00 0.00 44 1004.2
20260507061504 70 49 6.0 12.0 0.00 0.00 0.00 43 1004.2
20260507061004 70 46 6.0 12.0 0.00 0.00 0.00 42 1004.2
20260507060504 69 50 5.0 9.0 0.00 0.00 0.00 45 1004.2
20260507060217 69 49 6.0 10.0 0.00 0.00 0.00 45 1004.2
20260507055504 68 44 6.0 10.0 0.00 0.00 0.00 46 1003.2
20260507055004 68 38 5.0 7.0 0.00 0.00 0.00 47 1003.2
20260507054504 68 41 5.0 7.0 0.00 0.00 0.00 47 1003.2
20260507054004 67 58 6.0 8.0 0.00 0.00 0.00 47 1003.2
20260507053717 67 55 6.0 8.0 0.00 0.00 0.00 47 1003.2
20260507053004 66 44 6.0 8.0 0.00 0.00 0.00 48 1003.2
20260507052505 66 44 6.0 8.0 0.00 0.00 0.00 49 1003.2
20260507052216 66 44 5.0 8.0 0.00 0.00 0.00 49 1003.2
20260507051504 65 36 6.0 7.0 0.00 0.00 0.00 49 1003.2
20260507051004 65 39 5.0 7.0 0.00 0.00 0.00 49 1003.2
20260507050715 65 45 6.0 9.0 0.00 0.00 0.00 48 1003.2
20260507050004 65 45 7.0 9.0 0.00 0.00 0.00 47 1003.2
20260507045716 65 46 8.0 9.0 0.00 0.00 0.00 47 1003.2
20260507045004 65 41 8.0 12.0 0.00 0.00 0.00 46 1002.2
20260507044504 65 41 9.0 12.0 0.00 0.00 0.00 46 1002.2
20260507044004 65 45 10.0 13.0 0.00 0.00 0.00 46 1002.2
20260507043504 65 45 10.0 14.0 0.00 0.00 0.00 46 1002.2
20260507043004 65 44 10.0 14.0 0.00 0.00 0.00 46 1002.2
20260507042714 65 43 9.0 14.0 0.00 0.00 0.00 45 1002.2
20260507042003 65 45 10.0 14.0 0.00 0.00 0.00 45 1002.2
20260507041715 65 45 10.0 13.0 0.00 0.00 0.00 45 1002.2
20260507041004 65 52 9.0 13.0 0.00 0.00 0.00 44 1002.2
20260507040504 65 49 9.0 13.0 0.00 0.00 0.00 44 1002.2
20260507040003 65 41 8.0 11.0 0.00 0.00 0.00 44 1002.2
20260507035504 65 41 7.0 11.0 0.00 0.00 0.00 44 1002.2
20260507035215 65 42 7.0 11.0 0.00 0.00 0.00 44 1002.2
20260507034506 66 43 9.0 13.0 0.00 0.00 0.00 43 1002.2
20260507034004 66 45 9.0 13.0 0.00 0.00 0.00 42 1003.2
20260507033503 66 46 9.0 13.0 0.00 0.00 0.00 42 1003.2
20260507033005 66 46 9.0 13.0 0.00 0.00 0.00 41 1003.2
20260507032504 67 47 10.0 17.0 0.00 0.00 0.00 40 1002.2
20260507032004 67 50 10.0 17.0 0.00 0.00 0.00 39 1002.2
20260507031505 67 53 10.0 13.0 0.00 0.00 0.00 39 1002.2
20260507031003 67 60 11.0 17.0 0.00 0.00 0.00 38 1003.2
20260507030503 68 69 12.0 17.0 0.00 0.00 0.00 37 1003.2
20260507030214 68 75 13.0 15.0 0.00 0.00 0.00 36 1003.2
20260507025503 67 72 14.0 20.0 0.00 0.00 0.00 38 1003.2
20260507025004 67 69 12.0 18.0 0.00 0.00 0.00 40 1003.2
20260507024506 66 62 10.0 12.0 0.00 0.00 0.00 45 1003.2
20260507024004 65 56 9.0 12.0 0.00 0.00 0.00 47 1004.2
20260507023504 65 49 8.0 10.0 0.00 0.00 0.00 50 1004.2
20260507023004 65 48 8.0 10.0 0.00 0.00 0.00 52 1004.2
20260507022504 65 56 8.0 10.0 0.00 0.00 0.00 52 1004.2
20260507022218 64 61 9.0 13.0 0.00 0.00 0.00 55 1004.2
20260507021504 64 58 8.0 13.0 0.00 0.00 0.00 56 1004.2
20260507021004 64 47 8.0 10.0 0.00 0.00 0.00 58 1004.2
20260507020504 64 46 7.0 9.0 0.00 0.00 0.00 59 1004.2
20260507020004 64 50 7.0 9.0 0.00 0.00 0.00 60 1004.2
20260507015504 64 48 7.0 9.0 0.00 0.00 0.00 61 1004.2
20260507015004 64 50 7.0 9.0 0.00 0.00 0.00 62 1004.2
20260507014504 64 56 7.0 10.0 0.00 0.00 0.00 63 1004.2
20260507014004 64 52 8.0 10.0 0.00 0.00 0.00 64 1005.3
20260507013505 64 55 8.0 11.0 0.00 0.00 0.00 65 1005.3
20260507013004 64 54 8.0 11.0 0.00 0.00 0.00 65 1005.3
20260507012504 64 47 8.0 11.0 0.00 0.00 0.00 66 1005.3
20260507012004 64 45 8.0 10.0 0.00 0.00 0.00 67 1005.3
20260507010505 64 49 7.0 13.0 0.00 0.00 0.00 73 1005.3
20260507010215 64 53 8.0 13.0 0.00 0.00 0.00 74 1005.3
20260507005504 63 51 7.0 9.0 0.00 0.00 0.00 77 1005.3
20260507005003 63 42 6.0 7.0 0.00 0.00 0.00 79 1005.3
20260507004504 62 38 5.0 6.0 0.00 0.00 0.00 81 1005.3
20260507004003 62 32 5.0 5.0 0.00 0.00 0.00 82 1006.3
20260507003503 62 16 4.0 5.0 0.00 0.00 0.00 82 1006.3
20260507003004 62 4 4.0 5.0 0.00 0.00 0.00 83 1006.3
20260507002503 62 351 4.0 5.0 0.00 0.00 0.00 83 1006.3
20260507002004 62 328 3.0 5.0 0.00 0.00 0.00 83 1006.3
20260507001503 62 315 4.0 5.0 0.00 0.00 0.00 83 1006.3
20260507001004 62 317 4.0 5.0 0.00 0.00 0.00 83 1006.3
20260507000503 62 322 4.0 5.0 0.00 0.00 0.00 84 1006.3
20260507000003 62 334 3.0 5.0 0.00 0.00 0.00 84 1006.3
20260506235505 62 347 4.0 4.0 0.00 0.00 0.00 84 1006.3
20260506235004 62 342 4.0 5.0 0.00 0.00 0.00 84 1006.3
20260506234503 62 322 4.0 5.0 0.00 0.00 0.00 84 1006.3
20260506234005 62 323 4.0 5.0 0.00 0.00 0.00 84 1006.3